Regional Weather Roundup
Issued by NWS

Home | Current Version | Previous Version | Graphics & Text | Print | Product List | Glossary On
Versions: 1 2 3 4 5 6 7 8 9 10 11 12 13 14 15 16 17 18 19 20 21 22 23 24 25 26 27 28 29 30 31 32 33 34 35 36 37 38 39 40 41 42 43 44 45 46 47 48 49 50
000
ASUS43 KIND 280909
RWRIN

WEATHER ROUNDUP FOR INDIANA
NATIONAL WEATHER SERVICE INDIANAPOLIS IN
500 AM EDT TUE MAR 28 2017

NOTE: "FAIR" INDICATES FEW OR NO CLOUDS BELOW 12,000 FEET WITH NO
SIGNIFICANT WEATHER AND/OR OBSTRUCTIONS TO VISIBILITY.

* - STATION DOES NOT REPORT WEATHER SUCH AS PRECIPITATION OR FOG.

+ - STATION NOT QUALITY CONTROLLED BY THE NATIONAL WEATHER SERVICE.
    USE DATA WITH CAUTION...ESPECIALLY DEWPOINT AND RELATIVE
    HUMIDITY OBSERVATIONS.

INZ001>003-010>013-019-020-281000-
NORTHWEST INDIANA

CITY           SKY/WX    TMP DP  RH WIND       PRES   REMARKS
GARY /AIRPORT/ MOCLDY    39  37  90 N16       30.01R
KNOX *+        CLOUDY    39  28  65 N9        29.95S
LA PORTE +     CLOUDY    38  37  95 N12G17    29.96S
MICHIGAN CITY+ CLOUDY    37  37 100 N7        29.99R
MONTICELLO +   CLOUDY    43  39  88 N10       29.94R
RENSSELAER +   CLOUDY    41  37  87 N6        29.95S
VALPARAISO     CLOUDY    39  37  92 N8G18     29.97R

$$

LMZ046-743>745-281000-
SOUTHERN LAKE MICHIGAN

STATION/POSITION TIME  TEMP    WIND        PRES    WAVE
                       AIR SEA DIR/SP/G            HT
                 (UTC) (F)     (DEG/KT/KT) (MB)    (FT)
BURNS HARBOR     0840   38     360/ 12/ 14 1016.3R
MICHIGAN CITY    0840   38     350/ 15/ 16   N/A

$$

INZ004-005-014>016-021>024-281000-
NORTH CENTRAL INDIANA

CITY           SKY/WX    TMP DP  RH WIND       PRES   REMARKS
GOSHEN         CLOUDY    44  40  85 N13       29.93R
LOGANSPORT +   CLOUDY    45  43  93 N10       29.93R
PERU/GRISSOM   CLOUDY    49  49 100 N10       29.89R
ROCHESTER +    CLOUDY    46  45  93 N8        29.93R
SOUTH BEND     PTCLDY    38  36  92 N8        29.96R
WARSAW +       CLOUDY    45  43  93 N9        29.93R

$$

INZ006>009-017-018-025>027-281000-
NORTHEAST INDIANA

CITY           SKY/WX    TMP DP  RH WIND       PRES   REMARKS
ANGOLA *+      CLOUDY    46  37  71 N7        29.91R
AUBURN +       CLOUDY    50  45  81 N8        29.91R
FORT WAYNE     CLOUDY    51  47  86 N10       29.90R
HUNTINGTON +   CLOUDY    49  48  96 N7        29.90R
KENDALLVILLE + CLOUDY    46  45  95 N9        29.92R FOG

$$

INZ028-029-035-036-043>045-051>053-281000-
WEST CENTRAL INDIANA

CITY           SKY/WX    TMP DP  RH WIND       PRES   REMARKS
CRAWFORDSVL +  CLOUDY    47  47 100 NW10G16   29.93R FOG
GREENCASTLE +  CLOUDY    52  50  93 N13       29.91R FOG
LAFAYETTE      CLOUDY    44  41  89 N13       29.94R
TERRE HAUTE    CLOUDY    52  49  89 N9        29.91R

$$

INZ030>032-037>040-046>048-054>057-064-065-281000-
CENTRAL INDIANA

CITY           SKY/WX    TMP DP  RH WIND       PRES   REMARKS
CP ATTERBURY + CLOUDY    54  52  94 N7        29.86R
FRANKFORT +    CLOUDY    51  49  93 N13       29.93R FOG
GREENWOOD *+   CLOUDY    55  54  96 N9        29.87R
INDIANAPOLIS   CLOUDY    54  52  93 N10       29.88R
-EAGLE CREEK   CLOUDY    54  51  90 N7        29.88R
KOKOMO +       CLOUDY    50  48  93 N13       29.91R
MARION +       CLOUDY    51  50  95 N12       29.89S FOG
MT COMFORT *+  CLOUDY    52  52 100 N12       29.87R
SHELBYVILLE    CLOUDY    56  51  84 N12       29.84S
ZIONSVILLE +   CLOUDY    51  50  98 N10       29.90R FOG

$$

INZ033-034-041-042-049-050-058-059-281000-
EAST CENTRAL INDIANA

CITY           SKY/WX    TMP DP  RH WIND       PRES   REMARKS
MUNCIE         CLOUDY    54  51  90 NE9       29.87R
RICHMOND +     CLOUDY    52  52 100 N8        29.83S FOG

$$

INZ060-061-067>069-081>083-085>088-281000-
SOUTHWEST INDIANA

CITY           SKY/WX    TMP DP  RH WIND       PRES   REMARKS
EVANSVILLE     CLOUDY    56  53  90 NW6       29.89R
HUNTINGBURG *+ CLOUDY    53  52  96 W5        29.88R
WASHINGTON +   CLOUDY    56  54  94 MISG      29.87S

$$

INZ062-063-066-070>080-084-089>092-281000-
SOUTH CENTRAL AND SOUTHEAST INDIANA

CITY           SKY/WX    TMP DP  RH WIND       PRES   REMARKS
BLOOMINGTON    CLOUDY    56  53  90 N6        29.88R
MADISON *+     CLOUDY    55  54  94 W5        29.87R
SEYMOUR +      CLOUDY    55  55 100 CALM      29.85R FOG

$$





USA.gov is the U.S. government's official web portal to all federal, state and local government web resources and services.